Time,TemperatureF,DewpointF,PressureIn,WindDirection,WindDirectionDegrees,WindSpeedMPH,WindSpeedGustMPH,Humidity,HourlyPrecipIn,Conditions,Clouds,dailyrainin,SoftwareType,DateUTC
2013-02-07 00:09:00,27.2,0.0,30.21,SW,222,1.0,1.0,0,0.00,,,0.00,VWS V14.01,2013-02-07 05:09:00,
2013-02-07 00:19:00,26.9,0.0,30.21,SW,222,0.0,2.0,0,0.00,,,0.00,VWS V14.01,2013-02-07 05:19:00,
2013-02-07 00:29:00,26.9,0.0,30.21,SW,222,0.0,1.0,0,0.00,,,0.00,VWS V14.01,2013-02-07 05:29:00,
2013-02-07 00:39:00,26.6,0.0,30.21,SW,222,0.0,1.0,0,0.00,,,0.00,VWS V14.01,2013-02-07 05:39:00,
2013-02-07 00:49:00,26.3,0.0,30.21,SW,222,0.0,1.0,0,0.00,,,0.00,VWS V14.01,2013-02-07 05:49:00,
2013-02-07 00:59:00,26.0,0.0,30.21,SW,222,0.0,1.0,0,0.00,,,0.00,VWS V14.01,2013-02-07 05:59:00,
2013-02-07 01:09:00,25.7,0.0,30.21,SSW,212,0.0,3.0,0,0.00,,,0.00,VWS V14.01,2013-02-07 06:09:00,
2013-02-07 01:19:00,25.6,0.0,30.22,SSW,212,0.0,1.0,0,0.00,,,0.00,VWS V14.01,2013-02-07 06:19:00,
2013-02-07 01:29:00,25.6,0.0,30.22,SSW,212,0.0,2.0,0,0.00,,,0.00,VWS V14.01,2013-02-07 06:29:00,
2013-02-07 01:39:00,25.7,0.0,30.22,SSW,212,0.0,0.0,0,0.00,,,0.00,VWS V14.01,2013-02-07 06:39:00,
2013-02-07 01:49:00,25.6,0.0,30.23,SSW,198,0.0,5.0,0,0.00,,,0.00,VWS V14.01,2013-02-07 06:49:00,
2013-02-07 01:59:00,25.4,0.0,30.24,SSW,194,0.0,5.0,0,0.00,,,0.00,VWS V14.01,2013-02-07 06:59:00,
2013-02-07 02:09:00,25.0,0.0,30.24,SSW,194,0.0,2.0,0,0.00,,,0.00,VWS V14.01,2013-02-07 07:09:00,
2013-02-07 02:19:00,24.7,0.0,30.25,SSW,194,0.0,0.0,0,0.00,,,0.00,VWS V14.01,2013-02-07 07:19:00,
2013-02-07 02:29:00,23.9,0.0,30.26,SSW,194,0.0,0.0,0,0.00,,,0.00,VWS V14.01,2013-02-07 07:29:00,
2013-02-07 02:39:00,23.3,0.0,30.26,SSW,194,0.0,0.0,0,0.00,,,0.00,VWS V14.01,2013-02-07 07:39:00,
2013-02-07 02:49:00,23.2,0.0,30.24,SSW,194,0.0,0.0,0,0.00,,,0.00,VWS V14.01,2013-02-07 07:49:00,
2013-02-07 02:59:00,23.2,0.0,30.25,SSW,194,0.0,0.0,0,0.00,,,0.00,VWS V14.01,2013-02-07 07:59:00,
2013-02-07 03:09:00,23.5,0.0,30.25,SSW,193,1.0,4.0,0,0.00,,,0.00,VWS V14.01,2013-02-07 08:09:00,
2013-02-07 03:19:00,24.1,0.0,30.24,SSE,163,0.0,3.0,0,0.00,,,0.00,VWS V14.01,2013-02-07 08:19:00,
2013-02-07 03:29:00,24.2,0.0,30.25,South,170,3.0,4.0,0,0.00,,,0.00,VWS V14.01,2013-02-07 08:29:00,
2013-02-07 03:39:00,24.4,0.0,30.25,South,169,0.0,3.0,0,0.00,,,0.00,VWS V14.01,2013-02-07 08:39:00,
2013-02-07 03:49:00,24.5,0.0,30.26,SW,223,3.0,12.0,0,0.00,,,0.00,VWS V14.01,2013-02-07 08:49:00,
2013-02-07 03:59:00,25.0,0.0,30.27,SW,221,0.0,3.0,0,0.00,,,0.00,VWS V14.01,2013-02-07 08:59:00,
2013-02-07 04:09:00,25.0,0.0,30.27,SW,221,0.0,2.0,0,0.00,,,0.00,VWS V14.01,2013-02-07 09:09:00,
2013-02-07 04:19:00,25.0,0.0,30.27,SSW,209,0.0,4.0,0,0.00,,,0.00,VWS V14.01,2013-02-07 09:19:00,
2013-02-07 04:29:00,24.8,0.0,30.28,SSW,209,0.0,2.0,0,0.00,,,0.00,VWS V14.01,2013-02-07 09:29:00,
2013-02-07 04:39:00,24.7,0.0,30.28,SSW,204,0.0,2.0,0,0.00,,,0.00,VWS V14.01,2013-02-07 09:39:00,
2013-02-07 04:49:00,24.8,0.0,30.28,SSW,200,0.0,1.0,0,0.00,,,0.00,VWS V14.01,2013-02-07 09:49:00,
2013-02-07 04:59:00,24.8,0.0,30.28,SSW,200,0.0,1.0,0,0.00,,,0.00,VWS V14.01,2013-02-07 09:59:00,
2013-02-07 05:09:00,24.7,0.0,30.28,SSW,200,0.0,0.0,0,0.00,,,0.00,VWS V14.01,2013-02-07 10:09:00,
2013-02-07 05:19:00,24.4,0.0,30.29,SSW,200,0.0,1.0,0,0.00,,,0.00,VWS V14.01,2013-02-07 10:19:00,
2013-02-07 05:29:00,23.3,0.0,30.30,SSW,200,0.0,0.0,0,0.00,,,0.00,VWS V14.01,2013-02-07 10:29:00,
2013-02-07 05:39:00,22.5,0.0,30.30,SSW,200,0.0,0.0,0,0.00,,,0.00,VWS V14.01,2013-02-07 10:39:00,
2013-02-07 05:49:00,22.4,0.0,30.30,SSW,200,0.0,0.0,0,0.00,,,0.00,VWS V14.01,2013-02-07 10:49:00,
2013-02-07 05:59:00,22.1,0.0,30.31,SSW,200,0.0,0.0,0,0.00,,,0.00,VWS V14.01,2013-02-07 10:59:00,
2013-02-07 06:09:00,21.8,0.0,30.31,SSW,200,0.0,0.0,0,0.00,,,0.00,VWS V14.01,2013-02-07 11:09:00,
2013-02-07 06:19:00,21.9,0.0,30.30,SSW,200,0.0,0.0,0,0.00,,,0.00,VWS V14.01,2013-02-07 11:19:00,
2013-02-07 06:29:00,22.1,0.0,30.30,SSW,200,0.0,0.0,0,0.00,,,0.00,VWS V14.01,2013-02-07 11:29:00,
2013-02-07 06:39:00,22.4,0.0,30.30,SSW,200,0.0,0.0,0,0.00,,,0.00,VWS V14.01,2013-02-07 11:39:00,
2013-02-07 06:49:00,22.5,0.0,30.30,SSW,200,0.0,0.0,0,0.00,,,0.00,VWS V14.01,2013-02-07 11:49:00,
2013-02-07 06:59:00,23.0,0.0,30.30,SSW,200,0.0,0.0,0,0.00,,,0.00,VWS V14.01,2013-02-07 11:59:00,
2013-02-07 07:09:00,23.5,0.0,30.30,SSW,200,0.0,2.0,0,0.00,,,0.00,VWS V14.01,2013-02-07 12:09:00,
2013-02-07 07:19:00,23.9,0.0,30.32,SSW,200,0.0,1.0,0,0.00,,,0.00,VWS V14.01,2013-02-07 12:19:00,
2013-02-07 07:29:00,24.2,0.0,30.33,SSW,200,0.0,1.0,0,0.00,,,0.00,VWS V14.01,2013-02-07 12:29:00,
2013-02-07 07:39:00,24.7,0.0,30.33,SSW,200,0.0,2.0,0,0.00,,,0.00,VWS V14.01,2013-02-07 12:39:00,
2013-02-07 07:49:00,25.3,0.0,30.34,SSW,204,0.0,3.0,0,0.00,,,0.00,VWS V14.01,2013-02-07 12:49:00,
2013-02-07 07:59:00,25.7,0.0,30.34,SSW,205,0.0,4.0,0,0.00,,,0.00,VWS V14.01,2013-02-07 12:59:00,
2013-02-07 08:09:00,26.1,0.0,30.34,East,94,0.0,3.0,0,0.00,,,0.00,VWS V14.01,2013-02-07 13:09:00,
2013-02-07 08:19:00,26.4,0.0,30.35,East,97,2.0,2.0,0,0.00,,,0.00,VWS V14.01,2013-02-07 13:19:00,
2013-02-07 08:29:00,26.7,0.0,30.35,NE,51,1.0,7.0,0,0.00,,,0.00,VWS V14.01,2013-02-07 13:29:00,
2013-02-07 08:39:00,27.2,0.0,30.35,NE,45,2.0,12.0,0,0.00,,,0.00,VWS V14.01,2013-02-07 13:39:00,
2013-02-07 08:49:00,27.5,0.0,30.35,ENE,69,2.0,4.0,0,0.00,,,0.00,VWS V14.01,2013-02-07 13:49:00,
2013-02-07 08:59:00,27.8,0.0,30.36,NNE,16,0.0,5.0,0,0.00,,,0.00,VWS V14.01,2013-02-07 13:59:00,
2013-02-07 09:09:00,27.9,0.0,30.36,SSW,207,0.0,6.0,0,0.00,,,0.00,VWS V14.01,2013-02-07 14:09:00,
2013-02-07 09:19:00,28.1,0.0,30.36,ESE,106,0.0,3.0,0,0.00,,,0.00,VWS V14.01,2013-02-07 14:19:00,
2013-02-07 09:29:00,28.4,0.0,30.36,SSW,204,1.0,4.0,0,0.00,,,0.00,VWS V14.01,2013-02-07 14:29:00,
2013-02-07 09:39:00,28.7,0.0,30.36,SSW,205,1.0,8.0,0,0.00,,,0.00,VWS V14.01,2013-02-07 14:39:00,
2013-02-07 09:49:00,29.0,0.0,30.36,SSW,202,0.0,3.0,0,0.00,,,0.00,VWS V14.01,2013-02-07 14:49:00,
2013-02-07 09:59:00,29.1,0.0,30.37,SSW,200,0.0,5.0,0,0.00,,,0.00,VWS V14.01,2013-02-07 14:59:00,
2013-02-07 10:09:00,29.3,0.0,30.37,SSW,198,1.0,4.0,0,0.00,,,0.00,VWS V14.01,2013-02-07 15:09:00,
2013-02-07 10:19:00,29.4,0.0,30.36,East,95,1.0,3.0,0,0.00,,,0.00,VWS V14.01,2013-02-07 15:19:00,
2013-02-07 10:29:00,29.5,0.0,30.37,ESE,105,1.0,2.0,0,0.00,,,0.00,VWS V14.01,2013-02-07 15:29:00,
2013-02-07 10:39:00,29.7,0.0,30.37,East,98,0.0,3.0,0,0.00,,,0.00,VWS V14.01,2013-02-07 15:39:00,
2013-02-07 10:49:00,29.8,0.0,30.37,East,96,1.0,3.0,0,0.00,,,0.00,VWS V14.01,2013-02-07 15:49:00,
2013-02-07 10:59:00,29.8,0.0,30.38,ENE,74,0.0,3.0,0,0.00,,,0.00,VWS V14.01,2013-02-07 15:59:00,
2013-02-07 11:09:00,30.0,0.0,30.38,ENE,76,0.0,2.0,0,0.00,,,0.00,VWS V14.01,2013-02-07 16:09:00,
2013-02-07 11:19:00,29.8,0.0,30.38,SW,220,0.0,5.0,0,0.00,,,0.00,VWS V14.01,2013-02-07 16:19:00,
2013-02-07 11:29:00,30.1,0.0,30.36,SSW,205,1.0,4.0,0,0.00,,,0.00,VWS V14.01,2013-02-07 16:29:00,
2013-02-07 11:39:00,30.3,0.0,30.36,SSW,207,0.0,4.0,0,0.00,,,0.00,VWS V14.01,2013-02-07 16:39:00,
2013-02-07 11:49:00,30.1,0.0,30.36,SSW,207,0.0,3.0,0,0.00,,,0.00,VWS V14.01,2013-02-07 16:49:00,
2013-02-07 11:59:00,30.4,0.0,30.35,East,92,2.0,3.0,0,0.00,,,0.00,VWS V14.01,2013-02-07 16:59:00,
2013-02-07 12:09:00,30.6,0.0,30.35,East,92,1.0,2.0,0,0.00,,,0.00,VWS V14.01,2013-02-07 17:09:00,
2013-02-07 12:19:00,30.7,0.0,30.35,East,98,0.0,3.0,0,0.00,,,0.00,VWS V14.01,2013-02-07 17:19:00,
2013-02-07 12:29:00,30.7,0.0,30.34,SSE,160,2.0,3.0,0,0.00,,,0.00,VWS V14.01,2013-02-07 17:29:00,
2013-02-07 12:39:00,31.0,0.0,30.34,SSW,207,0.0,5.0,0,0.00,,,0.00,VWS V14.01,2013-02-07 17:39:00,
2013-02-07 12:49:00,31.3,0.0,30.33,SSW,200,0.0,4.0,0,0.00,,,0.00,VWS V14.01,2013-02-07 17:49:00,
2013-02-07 12:59:00,31.3,0.0,30.33,SW,236,1.0,4.0,0,0.00,,,0.00,VWS V14.01,2013-02-07 17:59:00,
2013-02-07 13:09:00,31.5,0.0,30.33,SW,235,0.0,2.0,0,0.00,,,0.00,VWS V14.01,2013-02-07 18:09:00,
2013-02-07 13:19:00,31.0,0.0,30.33,SW,233,1.0,2.0,0,0.01,,,0.01,VWS V14.01,2013-02-07 18:19:00,
2013-02-07 13:29:00,31.6,0.0,30.32,SW,232,1.0,2.0,0,0.01,,,0.01,VWS V14.01,2013-02-07 18:29:00,
2013-02-07 13:39:00,31.8,0.0,30.32,East,87,1.0,2.0,0,0.01,,,0.01,VWS V14.01,2013-02-07 18:39:00,
2013-02-07 13:49:00,31.9,0.0,30.32,ESE,113,0.0,2.0,0,0.01,,,0.01,VWS V14.01,2013-02-07 18:49:00,
2013-02-07 13:59:00,31.9,0.0,30.32,ESE,113,0.0,2.0,0,0.01,,,0.01,VWS V14.01,2013-02-07 18:59:00,
2013-02-07 14:09:00,32.4,0.0,30.32,ESE,113,0.0,2.0,0,0.01,,,0.01,VWS V14.01,2013-02-07 19:09:00,
2013-02-07 14:19:00,32.8,0.0,30.32,ESE,113,0.0,2.0,0,0.01,,,0.01,VWS V14.01,2013-02-07 19:19:00,
2013-02-07 14:29:00,33.1,0.0,30.32,East,80,0.0,3.0,0,0.00,,,0.01,VWS V14.01,2013-02-07 19:29:00,
2013-02-07 14:39:00,33.1,0.0,30.32,East,80,0.0,2.0,0,0.00,,,0.01,VWS V14.01,2013-02-07 19:39:00,
2013-02-07 14:49:00,32.9,0.0,30.32,East,81,0.0,2.0,0,0.00,,,0.01,VWS V14.01,2013-02-07 19:49:00,
2013-02-07 14:59:00,32.8,0.0,30.31,East,81,0.0,2.0,0,0.00,,,0.01,VWS V14.01,2013-02-07 19:59:00,
2013-02-07 15:09:00,32.7,0.0,30.31,East,81,0.0,1.0,0,0.00,,,0.01,VWS V14.01,2013-02-07 20:09:00,
2013-02-07 15:19:00,32.7,0.0,30.32,East,82,1.0,2.0,0,0.00,,,0.01,VWS V14.01,2013-02-07 20:19:00,
2013-02-07 15:29:00,32.7,0.0,30.32,East,82,0.0,2.0,0,0.00,,,0.01,VWS V14.01,2013-02-07 20:29:00,
2013-02-07 15:39:00,32.5,0.0,30.32,East,82,1.0,1.0,0,0.00,,,0.01,VWS V14.01,2013-02-07 20:39:00,
2013-02-07 15:49:00,32.5,0.0,30.32,East,82,0.0,3.0,0,0.00,,,0.01,VWS V14.01,2013-02-07 20:49:00,
2013-02-07 15:59:00,32.2,0.0,30.31,East,81,0.0,3.0,0,0.00,,,0.01,VWS V14.01,2013-02-07 20:59:00,
2013-02-07 16:09:00,31.9,0.0,30.31,ENE,78,2.0,3.0,0,0.00,,,0.01,VWS V14.01,2013-02-07 21:09:00,
2013-02-07 16:19:00,31.6,0.0,30.31,ENE,76,1.0,3.0,0,0.00,,,0.01,VWS V14.01,2013-02-07 21:19:00,
2013-02-07 16:29:00,31.3,0.0,30.31,ENE,76,0.0,2.0,0,0.00,,,0.01,VWS V14.01,2013-02-07 21:29:00,
2013-02-07 16:39:00,31.0,0.0,30.31,ENE,76,0.0,2.0,0,0.00,,,0.01,VWS V14.01,2013-02-07 21:39:00,
2013-02-07 16:49:00,30.7,0.0,30.30,ENE,76,1.0,2.0,0,0.00,,,0.01,VWS V14.01,2013-02-07 21:49:00,
2013-02-07 16:59:00,30.4,0.0,30.30,ENE,76,0.0,2.0,0,0.00,,,0.01,VWS V14.01,2013-02-07 21:59:00,
2013-02-07 17:09:00,30.1,0.0,30.30,ENE,76,2.0,2.0,0,0.00,,,0.01,VWS V14.01,2013-02-07 22:09:00,
2013-02-07 17:19:00,30.0,0.0,30.29,ENE,76,2.0,2.0,0,0.00,,,0.01,VWS V14.01,2013-02-07 22:19:00,
2013-02-07 17:29:00,29.7,0.0,30.29,ENE,76,1.0,2.0,0,0.00,,,0.01,VWS V14.01,2013-02-07 22:29:00,
2013-02-07 17:39:00,29.5,0.0,30.29,ENE,76,0.0,1.0,0,0.00,,,0.01,VWS V14.01,2013-02-07 22:39:00,
2013-02-07 17:49:00,29.5,0.0,30.30,ENE,76,0.0,1.0,0,0.00,,,0.01,VWS V14.01,2013-02-07 22:49:00,
2013-02-07 17:59:00,29.4,0.0,30.30,ENE,76,1.0,2.0,0,0.00,,,0.01,VWS V14.01,2013-02-07 22:59:00,
2013-02-07 18:09:00,29.3,0.0,30.30,ENE,76,0.0,1.0,0,0.00,,,0.01,VWS V14.01,2013-02-07 23:09:00,
2013-02-07 18:19:00,29.3,0.0,30.30,ENE,76,0.0,1.0,0,0.00,,,0.01,VWS V14.01,2013-02-07 23:19:00,
2013-02-07 18:29:00,29.1,0.0,30.30,ENE,76,0.0,2.0,0,0.00,,,0.01,VWS V14.01,2013-02-07 23:29:00,
2013-02-07 18:39:00,29.0,0.0,30.30,ENE,76,0.0,1.0,0,0.00,,,0.01,VWS V14.01,2013-02-07 23:39:00,
2013-02-07 18:49:00,28.8,0.0,30.30,ENE,76,0.0,1.0,0,0.00,,,0.01,VWS V14.01,2013-02-07 23:49:00,
2013-02-07 18:59:00,28.7,0.0,30.30,ENE,76,0.0,1.0,0,0.00,,,0.01,VWS V14.01,2013-02-07 23:59:00,
2013-02-07 19:09:00,28.5,0.0,30.30,ENE,76,0.0,1.0,0,0.00,,,0.01,VWS V14.01,2013-02-08 00:09:00,
2013-02-07 19:19:00,28.4,0.0,30.30,ENE,76,0.0,0.0,0,0.00,,,0.01,VWS V14.01,2013-02-08 00:19:00,
2013-02-07 19:29:00,27.9,0.0,30.30,ENE,76,0.0,1.0,0,0.00,,,0.01,VWS V14.01,2013-02-08 00:29:00,
2013-02-07 19:39:00,27.6,0.0,30.30,ENE,76,0.0,0.0,0,0.00,,,0.01,VWS V14.01,2013-02-08 00:39:00,
2013-02-07 19:49:00,27.3,0.0,30.30,ENE,76,0.0,0.0,0,0.00,,,0.01,VWS V14.01,2013-02-08 00:49:00,
2013-02-07 19:59:00,27.0,0.0,30.30,ENE,76,0.0,0.0,0,0.00,,,0.01,VWS V14.01,2013-02-08 00:59:00,
2013-02-07 20:09:00,26.9,0.0,30.30,ENE,77,0.0,0.0,0,0.00,,,0.01,VWS V14.01,2013-02-08 01:09:00,
2013-02-07 20:19:00,26.6,0.0,30.30,ENE,76,0.0,0.0,0,0.00,,,0.01,VWS V14.01,2013-02-08 01:19:00,
2013-02-07 20:29:00,26.0,0.0,30.30,ENE,76,0.0,0.0,0,0.00,,,0.01,VWS V14.01,2013-02-08 01:29:00,
2013-02-07 20:39:00,25.7,0.0,30.30,ENE,76,0.0,0.0,0,0.00,,,0.01,VWS V14.01,2013-02-08 01:39:00,
2013-02-07 20:49:00,25.6,0.0,30.30,ENE,76,0.0,0.0,0,0.00,,,0.01,VWS V14.01,2013-02-08 01:49:00,
2013-02-07 20:59:00,25.6,0.0,30.29,ENE,76,0.0,0.0,0,0.00,,,0.01,VWS V14.01,2013-02-08 01:59:00,
2013-02-07 21:09:00,25.6,0.0,30.29,ENE,76,0.0,0.0,0,0.00,,,0.01,VWS V14.01,2013-02-08 02:09:00,
2013-02-07 21:19:00,25.4,0.0,30.29,ENE,76,0.0,0.0,0,0.00,,,0.01,VWS V14.01,2013-02-08 02:19:00,
2013-02-07 21:29:00,25.4,0.0,30.28,ENE,76,0.0,0.0,0,0.00,,,0.01,VWS V14.01,2013-02-08 02:29:00,
2013-02-07 21:39:00,25.4,0.0,30.28,ENE,77,0.0,0.0,0,0.00,,,0.01,VWS V14.01,2013-02-08 02:39:00,
2013-02-07 21:49:00,25.6,0.0,30.28,ENE,76,0.0,0.0,0,0.00,,,0.01,VWS V14.01,2013-02-08 02:49:00,
2013-02-07 21:59:00,25.4,0.0,30.28,ENE,76,0.0,0.0,0,0.00,,,0.01,VWS V14.01,2013-02-08 02:59:00,
2013-02-07 22:09:00,25.4,0.0,30.28,ENE,76,0.0,0.0,0,0.00,,,0.01,VWS V14.01,2013-02-08 03:09:00,
2013-02-07 22:19:00,25.4,0.0,30.27,ENE,76,0.0,0.0,0,0.00,,,0.01,VWS V14.01,2013-02-08 03:19:00,
2013-02-07 22:29:00,25.7,0.0,30.27,ENE,77,0.0,0.0,0,0.00,,,0.01,VWS V14.01,2013-02-08 03:29:00,
2013-02-07 22:39:00,26.0,0.0,30.27,ENE,77,0.0,0.0,0,0.00,,,0.01,VWS V14.01,2013-02-08 03:39:00,
2013-02-07 22:49:00,26.1,0.0,30.26,ENE,76,0.0,0.0,0,0.00,,,0.01,VWS V14.01,2013-02-08 03:49:00,
2013-02-07 22:59:00,26.4,0.0,30.25,ENE,77,0.0,0.0,0,0.00,,,0.01,VWS V14.01,2013-02-08 03:59:00,
2013-02-07 23:09:00,26.7,0.0,30.25,ENE,76,0.0,1.0,0,0.00,,,0.01,VWS V14.01,2013-02-08 04:09:00,
2013-02-07 23:19:00,27.6,0.0,30.24,ENE,72,0.0,4.0,0,0.00,,,0.01,VWS V14.01,2013-02-08 04:19:00,
2013-02-07 23:29:00,29.3,0.0,30.24,ENE,64,0.0,5.0,0,0.00,,,0.01,VWS V14.01,2013-02-08 04:29:00,
2013-02-07 23:39:00,30.3,0.0,30.24,ENE,76,2.0,5.0,0,0.00,,,0.01,VWS V14.01,2013-02-08 04:39:00,
2013-02-07 23:49:00,31.0,0.0,30.23,NE,36,2.0,4.0,0,0.00,,,0.01,VWS V14.01,2013-02-08 04:49:00,
2013-02-07 23:59:00,31.3,0.0,30.22,ENE,72,1.0,5.0,0,0.00,,,0.01,VWS V14.01,2013-02-08 04:59:00,